EHI
0 0 0 0 0 0 0 0 0 0 0 0 0 0 0 0 0 0 0 0 0 0 0 0 0 0 0 0 0 0 0 0 0 0 0 0 0 0 0 0 0 0 0
0 0 0 0 0 0 0 0 0 0 0 0 0 0 0 0 0 0 0 0 0 0 0 0 0 0 0 0 0 0 0 0 0 0 0 0 0 0 0 0 0 0 0
0 0 0 0 0 0 0 0 0 0 0 0 0 0 0 0 0 0 0 0 0 0 0 0 0 0 0 0 0 0 0 0 0 0 0 0 0 0 0 0 0 0 0
0 0 0 0 0 0 0 0 0 0 0 0 0 0 0 0 0 0 0 0 0 0 0 0 0 0 0 0 0 0 0 0 0 0 0 0 0 0 0 0 0 0 0
0 0 0 0 0 0 0 0 0 0 0 0 0 0 0 0 0 0 0 0 0 0 0 0 0 0 0 0 0 0 0 0 0 0 0 0 0 0 0 0 0 0 0
0 0 0 0 0 0 0 0 0 0 0 0 0 0 0 0 0 0 0 0 0 0 0 0 0 0 0 0 0 0 0 0 0 0 0 0 0 0 0 0 0 0 0
0 0 0 0 0 0 0 0 0 0 0 0 0 0 0 0 0 0 0 0 0 0 0 0 0 0 0 0 0 0 0 0 0 0 0 0 0 0 0 0 0 0 0
0 0 0 0 0 0 0 0 0 0 0 0 0 0 0 0 0 0 0 0 0 0 0 0 0 0 0 0 0 0 0 0 0 0 0 0 0 0 0 0 0 0 0
0 0 0 0 0 0 0 0 0 0 0 0 0 0 0 0 0 0 0 0 0 0 0 0 0 0 0 0 0 0 0 0 0 0 0 0 0 0 0 0 0 0 0
0 0 0 0 0 0 0 0 0 0 0 0 0 0 0 0 0 0 0 0 0 0 0 0 0 0 0 0 0 0 0 0 0 0 0 0 0 0 0 0 0 0 0
0 0 0 0 0 0 0 0 0 0 0 0 0 0 0 0 0 0 0 0 0 0 0 0 0 0 0 0 0 0 0 0 0 0 0 0 0 0 0 0 0 0 0
0 0 0 0 0 0 0 0 0 0 0 0 0 0 0 0 0 0 0 0 0 0 0 0 0 0 0 0 0 0 0 0 0 0 0 0 0 0 0 0 0 0 0
0 0 0 0 0 0 0 0 0 0 0 0 0 0 0 0 0 0 0 0 0 0 0 0 0 0 0 0 0 0 0 0 0 0 0 0 0 0 0 0 0 0 0
0 0 0 0 0 0 0 0 0 0 0 0 0 0 0 0 0 0 0 0 0 0 0 0 0 0 0 0 0 0 0 0 0 0 0 0 0 0 0 0 0 0 0
0 0 0 0 0 0 0 0 0 0 0 0 0 0 0 0 0 0 0 0 0 0 0 0 0 0 0 0 0 0 0 0 0 0 0 0 0 0 0 0 0 0 0
0 0 0 0 0 0 0 0 0 0 0 0 0 0 0 0 0 0 0 0 0 0 0 0 0 0 0 0 0 0 0 0 0 0 0 0 0 0 0 0 0 0 0
0 0 0 0 0 0 0 0 0 0 0 0 0 0 0 0 0 0 0 0 0 0 0 0 0 0 0 0 0 0 0 0 0 0 0 0 0 0 0 0 0 0 0
0 0 0 0 0 0 0 0 0 0 0 0 0 0 0 0 0 0 0 0 0 0 0 0 0 0 0 0 0 0 0 0 0 0 0 0 0 0 0 0 0 0 0
0 0 0 0 0 0 0 0 0 0 0 0 0 0 0 0 0 0 0 0 0 0 0 0 0 0 0 0 0 0 0 0 0 0 0 0 0 0 0 0 0 0 0
0 0 0 0 0 0 0 0 0 0 0 0 0 0 0 0 0 0 0 0 0 0 0 0 0 0 0 0 0 0 0 0 0 0 0 0 0 0 0 0 0 0 0
0 0 0 0 0 0 0 0 0 0 0 0 0 0 0 0 0 0 0 0 0 0 0 0 0 0 0 0 0 0 0 0 0 0 0 0 0 0 0 0 0 0 0
0 0 0 0 0 0 0 0 0 0 0 0 0 0 0 0 0 0 0 0 0 0 0 0 0 0 0 0 0 0 0 0 0 0 0 0 0 0 0 0 0 0 0
0 0 0 0 0 0 0 0 0 0 0 0 0 0 0 0 0 0 0 0 0 0 0 0 0 0 0 0 0 0 0 0 0 0 0 0 0 0 0 0 0 0 0
0 0 0 0 0 0 0 0 0 0 0 0 0 0 0 0 0 0 0 0 0 0 0 0 0 0 0 0 0 0 0 0 0 0 0 0 0 0 0 0 0 0 0
0 0 0 0 0 0 0 0 0 0 0 0 0 0 0 0 0 0 0 0 0 0 0 0 0 0 0 0 0 0 0 0 0 0 0 0 0 0 0 0 0 0 0
0 0 0 0 0 0 0 0 0 0 0 0 0 0 0 0 0 0 0 0 0 0 0 0 0 0 0 0 0 0 0 0 0 0 0 0 0 0 0 0 0 0 0
Wind_Speed
1 1 2 3 3 4 4 3 3 3 2 2 1 1 2 2 2 2 2 3 3 3 2 2 2 2 1 2 2 2 2 2 1 1 1 1 0 0 1 1 1 1 2
1 1 2 2 3 3 3 3 2 2 2 1 1 0 0 0 1 1 2 2 2 3 2 1 1 2 1 2 2 2 1 1 1 1 0 1 1 1 1 1 0 1 1
3 3 3 2 2 2 2 2 2 2 1 1 1 2 2 2 2 2 2 3 3 2 2 2 1 1 1 1 1 1 1 1 2 1 0 0 2 2 1 1 1 1 1
2 3 3 3 3 2 2 2 2 2 1 2 2 2 1 0 1 2 2 3 3 2 2 2 2 1 1 1 1 1 1 1 1 2 1 1 1 1 2 1 1 1 1
3 3 3 3 2 2 2 2 2 1 1 1 2 1 0 0 1 2 2 3 2 2 2 2 2 2 1 1 1 2 1 1 1 2 1 1 2 1 2 3 2 2 2
2 2 2 1 1 1 1 1 2 1 1 1 1 1 1 1 1 2 2 2 2 2 2 2 2 2 2 2 2 2 2 2 2 2 2 1 1 1 1 2 3 3 2
3 2 2 2 1 1 0 0 1 1 1 1 1 2 2 2 2 2 2 2 2 2 3 3 2 2 2 3 2 2 2 2 3 3 3 2 2 2 2 2 3 3 3
2 3 3 3 3 2 1 1 1 1 1 2 2 2 2 2 2 3 2 3 3 3 3 3 3 3 3 3 3 2 3 2 3 3 3 3 3 2 2 2 2 3 3
2 2 2 2 2 2 2 2 2 1 1 2 2 2 3 3 3 3 3 3 3 3 3 3 4 4 3 3 3 3 3 3 3 4 4 3 3 3 3 2 3 3 3
2 2 1 1 2 2 2 1 2 2 2 2 2 2 3 3 3 3 4 4 4 4 4 4 4 4 4 4 3 4 3 3 4 3 4 4 3 3 3 3 3 3 4
2 2 2 1 1 1 1 1 2 2 2 2 2 3 3 3 3 4 4 5 5 4 4 5 4 4 4 4 4 4 4 4 4 4 4 5 4 3 3 3 3 3 3
2 2 1 1 1 1 1 2 2 2 3 3 3 3 3 3 3 4 5 5 5 5 5 5 5 5 5 4 5 5 5 5 5 5 5 5 4 5 4 4 4 4 4
2 1 1 1 2 2 2 2 2 3 3 3 3 4 3 4 4 5 5 5 5 5 5 5 5 6 5 5 5 5 6 6 6 6 6 6 5 6 4 5 5 4 4
2 2 2 2 2 2 2 3 3 3 3 3 3 4 4 4 5 5 5 5 5 5 6 6 6 6 6 6 6 6 6 6 6 6 6 6 6 7 6 5 6 4 4
3 3 3 3 3 3 3 3 3 3 3 4 4 5 4 4 4 5 5 5 5 6 6 6 6 6 6 6 6 6 7 7 6 6 6 7 8 9 7 6 5 5 4
4 4 3 3 4 4 4 4 4 4 3 4 5 5 4 4 4 5 5 5 5 5 6 7 7 7 7 8 9 7 6 7 7 7 7 7 8 9 10 10 9 8 6
4 4 4 4 4 4 4 5 5 4 4 5 5 5 5 5 5 5 5 5 5 5 6 7 7 8 9 10 10 10 7 7 7 7 7 6 6 8 7 8 9 9 10
4 5 4 4 4 4 4 4 4 4 4 5 5 5 5 6 5 5 6 6 5 6 6 7 7 8 9 10 11 10 7 7 8 8 8 8 7 7 7 6 7 8 8
4 4 4 4 4 4 3 3 4 4 5 5 5 5 5 6 6 6 7 6 5 6 6 7 7 8 9 10 11 10 6 6 8 8 8 8 8 10 9 7 7 8 8
3 3 3 3 3 4 3 3 4 5 5 6 6 6 6 6 7 7 7 6 6 7 7 7 7 8 8 11 11 10 6 7 6 6 7 10 10 11 10 8 7 8 7
4 3 3 3 4 4 3 4 5 6 6 5 6 6 6 6 7 7 6 6 6 6 6 8 8 8 9 10 12 11 6 6 6 6 6 6 10 11 12 10 8 10 8
4 3 3 4 4 3 3 5 6 6 5 5 6 6 6 6 5 6 6 6 6 6 6 7 7 6 7 9 10 13 12 10 7 7 6 7 11 12 12 10 10 11 8
4 4 3 5 5 4 3 5 6 5 5 5 6 6 6 6 6 6 6 6 5 5 6 6 6 6 5 6 11 12 13 13 8 7 10 10 11 10 8 9 10 7 4
4 4 4 4 6 5 5 5 5 5 4 6 6 6 5 5 5 5 5 5 5 5 6 6 6 5 5 5 5 5 6 9 8 6 7 9 9 8 8 7 5 4 4
4 3 4 5 6 6 6 6 5 4 4 5 5 6 5 5 5 4 4 5 6 7 7 6 5 6 6 7 9 7 5 5 5 4 3 3 3 4 4 4 4 4 4
4 4 4 5 6 6 6 6 5 4 4 5 5 4 4 4 4 4 4 6 7 10 11 10 9 8 10 11 11 12 11 9 6 4 4 4 4 4 4 4 4 4 4
Wind_Direction
220 111 104 98 94 89 94 101 94 86 83 72 62 52 29 9 8 6 10 10 7 8 29 28 18 12 16 359 359 3 351 354 347 16 347 335 300 66 50 359 356 6 357
139 126 114 109 114 117 114 110 105 97 93 87 86 118 93 353 339 344 4 5 5 1 8 33 10 1 4 12 5 18 341 333 350 8 19 316 307 331 324 308 303 330 0
189 180 166 157 137 141 152 144 133 111 94 80 74 55 39 15 9 359 355 352 358 352 353 351 353 350 3 344 318 348 349 310 315 341 163 197 253 300 284 265 283 319 331
180 176 174 171 175 185 168 153 142 121 112 109 106 109 91 330 308 320 324 330 346 348 340 344 339 320 333 306 298 328 303 300 294 315 324 282 245 244 290 294 289 308 300
187 185 183 185 186 172 166 164 142 127 130 128 138 138 126 265 310 321 327 326 329 335 337 328 328 314 294 283 285 302 305 280 278 290 299 309 300 252 247 277 290 294 272
204 208 188 139 100 77 93 140 144 154 160 154 152 167 192 223 289 317 317 317 314 315 317 317 301 302 295 277 264 266 271 275 273 284 276 264 269 266 257 264 276 281 280
201 202 185 169 166 164 159 117 170 228 202 183 202 212 215 215 227 246 265 292 303 304 297 302 291 284 288 285 270 256 266 269 265 260 267 265 266 270 263 255 273 281 284
209 211 208 192 191 195 204 198 221 267 234 225 238 237 231 226 238 243 241 254 266 272 276 274 276 277 273 283 281 254 252 256 258 265 264 268 266 262 257 247 250 274 276
231 229 222 203 197 201 214 212 222 256 261 256 251 242 236 237 245 251 247 252 263 271 269 266 267 273 273 267 279 262 245 244 249 256 261 265 263 260 256 250 234 232 254
256 257 234 217 225 222 236 235 232 245 251 252 259 277 261 252 244 249 257 258 263 265 264 266 264 265 270 264 265 274 250 241 252 256 257 265 267 260 256 245 247 240 239
251 248 254 249 248 272 258 258 259 273 276 270 271 273 273 274 257 249 253 255 259 261 255 257 262 263 263 258 253 265 253 244 252 257 257 265 268 260 253 246 241 243 241
253 240 244 266 290 273 266 263 268 275 279 277 271 265 268 273 270 262 257 255 256 259 255 255 257 260 260 255 251 262 258 245 249 253 256 262 268 263 254 242 244 245 247
269 260 251 250 256 263 264 263 264 270 282 278 270 267 265 265 266 268 269 265 257 258 257 255 254 257 258 257 253 256 259 246 244 247 251 257 260 263 259 250 247 248 257
259 252 259 260 262 264 262 260 267 268 275 274 267 266 265 264 266 270 268 265 263 256 251 254 254 254 255 255 251 256 259 247 246 246 249 251 251 257 256 253 246 249 251
274 269 266 269 274 276 272 267 271 272 272 267 264 263 266 266 266 268 268 268 265 261 251 251 254 254 252 249 247 249 257 252 251 252 251 253 255 260 257 256 247 241 234
273 277 277 278 275 273 275 277 274 272 268 262 264 267 268 267 266 267 269 271 268 266 257 250 250 253 254 257 256 255 257 255 250 253 256 257 256 262 265 266 265 256 241
269 271 272 269 269 267 267 267 269 274 267 265 268 268 266 268 269 271 272 268 267 266 264 256 249 252 255 259 258 258 263 256 248 247 251 258 260 265 259 266 269 263 257
269 273 277 280 282 277 275 275 275 272 268 267 268 269 269 270 271 268 265 263 265 261 261 262 253 254 259 261 259 260 260 259 252 246 245 250 255 256 256 257 259 257 251
272 275 278 282 281 278 275 276 279 277 273 272 271 269 265 265 267 265 262 262 261 262 259 261 258 255 259 261 260 261 254 258 257 253 249 246 250 259 262 258 258 263 263
301 298 301 304 289 284 276 273 277 278 274 273 273 270 263 260 262 262 263 262 258 258 261 263 259 255 257 260 260 257 249 257 258 256 253 252 257 261 257 250 250 257 261
312 312 310 303 295 294 290 283 283 278 280 283 281 274 267 262 262 261 260 258 259 261 259 262 261 255 256 260 258 256 248 250 254 254 253 254 263 265 260 258 252 259 266
321 321 316 309 306 301 293 287 283 285 289 287 285 281 275 269 265 259 259 256 252 256 258 260 264 258 257 258 257 257 256 256 251 252 253 257 264 266 265 261 263 270 270
313 315 309 309 310 304 291 283 288 293 294 295 290 286 283 275 269 258 255 255 246 247 253 254 259 263 258 256 262 262 259 258 254 253 258 265 267 269 267 267 271 269 254
311 315 316 312 310 310 302 287 291 293 294 295 296 293 289 284 278 268 249 248 245 247 251 253 257 264 267 261 257 258 263 261 259 259 264 268 268 266 268 269 264 253 246
313 309 306 306 306 311 308 304 301 298 297 296 299 300 296 291 283 281 264 258 249 247 252 252 253 257 261 263 269 266 257 252 252 256 251 250 256 255 257 256 253 252 252
308 311 311 310 309 311 310 310 310 304 300 303 307 304 303 300 293 288 291 283 275 273 270 268 267 265 269 280 271 269 269 268 259 251 241 245 246 250 254 256 257 253 250